GW4074 Weather Reports


Display with metric or nautical units.
time (UTC)temp
F
wind
direction
speed
MPH
gust
MPH
rain 1hr
in
rain 24hr
in
rain mn
in
humidity
%
barometer
mb
20260507112539 47 62 2.0 3.0 0.00 0.00 0.00 99 1020.2
20260507112035 47 62 2.0 3.0 0.00 0.00 0.00 99 1020.2
20260507111532 47 57 2.0 3.0 0.00 0.00 0.00 99 1020.2
20260507111029 47 46 1.0 2.0 0.00 0.00 0.00 99 1020.2
20260507110525 48 102 2.0 2.0 0.00 0.00 0.00 99 1020.2
20260507110022 48 123 2.0 2.0 0.00 0.00 0.00 99 1020.2
20260507105519 48 87 1.0 2.0 0.00 0.00 0.00 99 1020.4
20260507105015 47 56 2.0 2.0 0.00 0.00 0.00 99 1020.4
20260507104513 47 108 2.0 2.0 0.00 0.00 0.00 99 1020.4
20260507104009 47 56 2.0 2.0 0.00 0.00 0.00 99 1020.1
20260507103505 47 38 0.0 2.0 0.00 0.00 0.00 99 1020.2
20260507103002 47 57 0.0 1.0 0.00 0.00 0.00 99 1020.3
20260507102459 47 47 2.0 3.0 0.00 0.00 0.00 99 1020.4
20260507101954 47 35 2.0 2.0 0.00 0.00 0.00 99 1020.3
20260507101449 47 42 2.0 3.0 0.00 0.00 0.00 99 1020.2
20260507100947 47 43 2.0 3.0 0.00 0.00 0.00 99 1020.2
20260507100444 47 69 2.0 3.0 0.00 0.00 0.00 99 1020.3
20260507095942 47 93 2.0 2.0 0.00 0.00 0.00 99 1020.2
20260507095440 47 61 0.0 2.0 0.00 0.00 0.00 99 1020.4
20260507094936 47 33 2.0 3.0 0.00 0.00 0.00 99 1020.4
20260507094432 47 99 2.0 2.0 0.00 0.00 0.00 99 1020.4
20260507093929 47 81 1.0 2.0 0.00 0.00 0.00 99 1020.2
20260507093427 47 105 2.0 2.0 0.00 0.00 0.00 99 1020.4
20260507092925 47 107 2.0 2.0 0.00 0.00 0.00 99 1020.4
20260507092421 48 57 1.0 3.0 0.00 0.00 0.00 99 1020.5
20260507091917 48 104 2.0 2.0 0.00 0.00 0.00 99 1020.5
20260507091414 48 73 0.0 1.0 0.00 0.00 0.00 99 1020.5
20260507090909 48 123 1.0 1.0 0.00 0.00 0.00 99 1020.5
20260507090406 48 135 0.0 1.0 0.00 0.00 0.00 99 1020.5
20260507085903 48 128 2.0 2.0 0.00 0.00 0.00 99 1020.5
20260507085400 48 77 1.0 2.0 0.00 0.00 0.00 99 1020.6
20260507084857 48 102 2.0 2.0 0.00 0.00 0.00 99 1020.5
20260507084354 48 111 2.0 3.0 0.00 0.00 0.00 99 1020.5
20260507083851 49 123 3.0 3.0 0.00 0.00 0.00 99 1020.5
20260507083347 49 96 2.0 2.0 0.00 0.00 0.00 99 1020.5
20260507082843 49 97 1.0 2.0 0.00 0.00 0.00 99 1020.4
20260507082339 49 125 1.0 3.0 0.00 0.00 0.00 99 1020.4
20260507081837 49 135 2.0 2.0 0.00 0.00 0.00 99 1020.4
20260507081332 49 55 0.0 1.0 0.00 0.00 0.00 99 1020.5
20260507080829 49 30 0.0 1.0 0.00 0.00 0.00 99 1020.3
20260507080325 49 98 1.0 1.0 0.00 0.00 0.00 99 1020.4
20260507075821 49 66 0.0 2.0 0.00 0.00 0.00 99 1020.4
20260507075317 49 107 2.0 2.0 0.00 0.00 0.00 99 1020.3
20260507074814 49 93 1.0 1.0 0.00 0.00 0.00 99 1020.4
20260507074312 49 117 0.0 2.0 0.00 0.00 0.00 99 1020.4
20260507073809 49 107 2.0 2.0 0.00 0.00 0.00 99 1020.2
20260507073305 49 94 1.0 2.0 0.00 0.00 0.00 99 1020.2
20260507072802 49 84 1.0 2.0 0.00 0.00 0.00 99 1020.2
20260507072300 49 61 1.0 2.0 0.00 0.00 0.00 99 1020.0
20260507071757 49 58 2.0 2.0 0.02 0.00 0.00 99 1020.2
20260507071253 49 46 2.0 2.0 0.02 0.00 0.00 99 1020.2
20260507070750 49 48 2.0 2.0 0.00 0.00 0.00 99 1020.2
20260507070247 49 102 0.0 2.0 0.00 0.00 0.00 99 1020.3
20260507065744 49 120 0.0 1.0 0.00 0.10 0.10 99 1020.2
20260507065241 49 101 0.0 1.0 0.00 0.10 0.10 99 1020.2
20260507064738 49 98 1.0 2.0 0.00 0.10 0.10 99 1020.2
20260507064237 49 107 2.0 2.0 0.00 0.10 0.10 99 1020.1
20260507063734 49 113 1.0 2.0 0.00 0.10 0.10 99 1020.2
20260507063230 49 67 1.0 2.0 0.00 0.10 0.10 99 1020.2
20260507062727 49 62 1.0 2.0 0.00 0.10 0.10 99 1020.2
20260507062225 49 82 1.0 2.0 0.00 0.10 0.10 99 1020.4
20260507061723 49 55 0.0 1.0 0.00 0.10 0.10 99 1020.0
20260507061221 49 60 0.0 2.0 0.00 0.10 0.10 99 1020.4
20260507060718 49 105 1.0 2.0 0.00 0.10 0.10 99 1020.3
20260507060215 49 77 1.0 1.0 0.00 0.10 0.10 99 1020.3
20260507055710 49 117 0.0 1.0 0.00 0.10 0.10 99 1020.2
20260507055207 49 89 0.0 1.0 0.00 0.10 0.10 99 1020.1
20260507054703 49 44 0.0 1.0 0.00 0.10 0.10 99 1020.3
20260507054159 49 64 1.0 1.0 0.00 0.10 0.10 99 1020.3
20260507053658 49 80 1.0 2.0 0.00 0.10 0.10 99 1020.3
20260507053155 49 80 1.0 2.0 0.00 0.10 0.10 99 1020.4
20260507052654 49 103 1.0 2.0 0.00 0.10 0.10 99 1020.3
20260507052149 49 89 1.0 2.0 0.00 0.10 0.10 99 1020.5
20260507051647 49 64 1.0 2.0 0.00 0.10 0.10 99 1020.5
20260507051143 49 70 2.0 2.0 0.00 0.10 0.10 99 1020.4
20260507050641 49 92 2.0 2.0 0.00 0.10 0.10 99 1020.5
20260507050137 49 69 1.0 2.0 0.00 0.10 0.10 99 1020.4
20260507045634 49 69 1.0 2.0 0.00 0.10 0.10 99 1020.5
20260507045131 49 24 0.0 1.0 0.00 0.10 0.10 99 1020.5
20260507044628 49 57 1.0 2.0 0.00 0.10 0.10 99 1020.5
20260507044125 50 68 2.0 2.0 0.00 0.10 0.10 99 1020.4
20260507043621 50 36 1.0 2.0 0.00 0.10 0.10 99 1020.4
20260507043118 50 76 0.0 1.0 0.00 0.10 0.10 99 1020.3
20260507042614 50 51 0.0 2.0 0.00 0.10 0.10 99 1020.3
20260507042109 50 113 1.0 1.0 0.00 0.10 0.10 99 1020.4
20260507041606 50 107 2.0 2.0 0.00 0.10 0.10 99 1020.2
20260507041103 50 120 2.0 2.0 0.00 0.10 0.10 99 1020.2
20260507040600 50 110 2.0 2.0 0.00 0.10 0.10 99 1020.3
20260507040056 50 113 2.0 2.0 0.00 0.10 0.10 99 1020.4
20260507035552 50 110 2.0 2.0 0.00 0.10 0.10 99 1020.3
20260507035049 50 114 1.0 2.0 0.00 0.10 0.10 99 1020.2
20260507034545 50 110 2.0 2.0 0.00 0.10 0.10 99 1020.2
20260507034044 50 112 1.0 2.0 0.00 0.10 0.10 99 1020.1
20260507033541 50 112 2.0 2.0 0.00 0.10 0.10 99 1020.1
20260507033038 50 122 1.0 2.0 0.00 0.10 0.10 99 1020.2
20260507032535 50 120 1.0 1.0 0.02 0.10 0.10 99 1019.9
20260507032031 50 93 1.0 2.0 0.02 0.10 0.10 99 1020.0
20260507031527 50 117 2.0 2.0 0.00 0.09 0.09 99 1019.9
20260507031025 50 117 2.0 2.0 0.00 0.09 0.09 99 1019.8
20260507030522 50 116 2.0 2.0 0.00 0.09 0.09 99 1019.9
20260507030020 50 125 2.0 3.0 0.00 0.09 0.09 99 1019.9
20260507025516 50 118 2.0 4.0 0.00 0.09 0.09 99 1019.9
20260507025009 51 117 2.0 2.0 0.00 0.09 0.09 99 1020.0
20260507024506 51 97 2.0 2.0 0.00 0.09 0.09 99 1020.0
20260507024001 51 136 2.0 2.0 0.00 0.09 0.09 99 1019.9
20260507023458 51 125 2.0 3.0 0.00 0.09 0.09 99 1019.8
20260507022955 51 112 3.0 3.0 0.00 0.09 0.09 99 1019.8
20260507022452 51 89 1.0 3.0 0.00 0.09 0.09 99 1019.9
20260507021947 51 113 3.0 3.0 0.00 0.09 0.09 99 1019.8
20260507021443 51 130 2.0 2.0 0.00 0.09 0.09 99 1020.0
20260507020941 51 118 2.0 2.0 0.00 0.09 0.09 99 1020.0
20260507020437 51 132 4.0 4.0 0.00 0.09 0.09 99 1019.9
20260507015934 51 104 1.0 2.0 0.00 0.09 0.09 99 1019.9
20260507015433 51 117 1.0 1.0 0.00 0.09 0.09 99 1019.9
20260507014929 51 76 1.0 3.0 0.00 0.09 0.09 99 1019.8
20260507014426 51 97 0.0 2.0 0.00 0.09 0.09 99 1019.9
20260507013923 51 113 0.0 2.0 0.00 0.09 0.09 99 1019.9
20260507013420 51 121 2.0 3.0 0.00 0.09 0.09 99 1020.1
20260507012918 51 110 3.0 3.0 0.00 0.09 0.09 99 1020.1
20260507012414 51 110 2.0 3.0 0.00 0.09 0.09 99 1019.8
20260507011910 51 149 2.0 3.0 0.00 0.09 0.09 99 1019.8
20260507011407 51 109 0.0 2.0 0.00 0.09 0.09 99 1019.8
20260507010902 51 89 0.0 1.0 0.00 0.09 0.09 99 1020.1
20260507010357 51 49 0.0 2.0 0.00 0.09 0.09 99 1020.0
20260507005855 51 80 0.0 1.0 0.00 0.09 0.09 99 1019.9
20260507005351 51 89 0.0 2.0 0.00 0.09 0.09 99 1020.0
20260507004848 51 107 3.0 3.0 0.00 0.09 0.09 99 1019.9
20260507004345 51 143 2.0 2.0 0.00 0.09 0.09 99 1019.8
20260507003842 51 110 2.0 3.0 0.00 0.09 0.09 99 1020.0
20260507003338 51 114 3.0 4.0 0.00 0.09 0.09 99 1020.0
20260507002833 51 143 2.0 4.0 0.00 0.09 0.09 99 1019.7
20260507002329 51 135 2.0 2.0 0.00 0.09 0.09 99 1020.0
20260507001827 51 121 2.0 3.0 0.00 0.09 0.09 99 1020.1
20260507001323 51 114 2.0 3.0 0.00 0.09 0.09 99 1019.9
20260507000820 51 139 2.0 3.0 0.00 0.09 0.09 99 1019.9
20260507000316 51 144 3.0 4.0 0.00 0.09 0.09 99 1019.8
20260506235812 51 121 2.0 4.0 0.00 0.09 0.09 99 1020.0
20260506235308 51 101 2.0 3.0 0.00 0.09 0.09 99 1020.1
20260506234804 51 119 2.0 4.0 0.00 0.09 0.09 99 1019.9
20260506234302 51 124 2.0 3.0 0.00 0.09 0.09 99 1019.9
20260506233800 51 112 2.0 3.0 0.00 0.09 0.09 99 1019.9
20260506233256 51 125 2.0 3.0 0.00 0.09 0.09 99 1020.0
20260506232747 51 115 2.0 3.0 0.02 0.09 0.09 99 1019.7
20260506232242 50 160 2.0 3.0 0.02 0.09 0.09 99 1019.8
20260506231740 50 133 2.0 4.0 0.00 0.09 0.09 99 1019.9
20260506231238 51 133 3.0 3.0 0.00 0.09 0.09 99 1019.9
20260506230734 51 99 2.0 3.0 0.00 0.09 0.09 99 1020.0
20260506230230 51 66 0.0 2.0 0.00 0.09 0.09 99 1020.1
20260506225727 51 115 4.0 4.0 0.00 0.09 0.09 99 1020.1
20260506225224 51 124 2.0 3.0 0.00 0.09 0.09 99 1020.0
20260506224720 51 102 3.0 3.0 0.00 0.09 0.09 99 1020.3
20260506224218 51 158 1.0 4.0 0.00 0.09 0.09 99 1020.2
20260506223714 51 135 1.0 4.0 0.00 0.09 0.09 99 1020.1
20260506223210 51 133 2.0 3.0 0.00 0.09 0.09 99 1020.2
20260506222707 51 110 3.0 3.0 0.02 0.09 0.09 99 1020.0
20260506222202 51 98 1.0 3.0 0.02 0.09 0.09 99 1020.0
20260506221701 51 153 2.0 3.0 0.00 0.09 0.09 99 1020.2
20260506221158 51 118 2.0 4.0 0.00 0.09 0.09 99 1020.1
20260506220655 51 150 2.0 4.0 0.00 0.09 0.09 99 1020.1
20260506220150 51 126 2.0 4.0 0.00 0.09 0.09 99 1020.3
20260506215647 51 119 2.0 3.0 0.00 0.09 0.09 99 1020.1
20260506215142 51 150 2.0 5.0 0.02 0.09 0.09 99 1020.3
20260506214639 51 157 3.0 4.0 0.00 0.08 0.08 99 1020.2
20260506214137 51 115 3.0 4.0 0.00 0.08 0.08 99 1020.1
20260506213635 51 137 3.0 4.0 0.00 0.08 0.08 99 1020.3
20260506213132 51 125 3.0 4.0 0.00 0.08 0.08 99 1020.2
20260506212629 51 109 3.0 4.0 0.00 0.08 0.08 99 1020.3
20260506212124 51 156 2.0 4.0 0.00 0.08 0.08 99 1020.2
20260506211619 51 110 3.0 3.0 0.00 0.08 0.08 99 1020.3
20260506211117 51 87 1.0 3.0 0.00 0.08 0.08 99 1020.0
20260506210614 50 137 1.0 5.0 0.00 0.08 0.08 99 1020.3
20260506210110 50 130 3.0 3.0 0.00 0.08 0.08 99 1020.2
20260506205607 51 114 3.0 3.0 0.02 0.08 0.08 99 1020.2
20260506205102 51 156 2.0 4.0 0.02 0.08 0.08 99 1019.9
20260506204600 51 162 4.0 4.0 0.00 0.08 0.08 99 1020.2
20260506204057 50 128 2.0 3.0 0.00 0.08 0.08 99 1020.2
20260506203555 50 162 3.0 4.0 0.02 0.08 0.08 99 1020.1
20260506203051 50 141 2.0 3.0 0.00 0.07 0.07 99 1020.2
20260506202549 50 115 3.0 5.0 0.00 0.07 0.07 99 1020.0
20260506202045 51 112 2.0 2.0 0.00 0.07 0.07 99 1020.1
20260506201543 51 157 4.0 4.0 0.00 0.07 0.07 99 1020.1
20260506201039 51 91 2.0 3.0 0.00 0.07 0.07 99 1019.9
20260506200535 51 114 2.0 4.0 0.00 0.07 0.07 99 1019.9
20260506200032 51 134 2.0 3.0 0.00 0.07 0.07 99 1020.1
20260506195529 50 111 3.0 5.0 0.00 0.07 0.07 99 1019.9
20260506195025 51 101 2.0 2.0 0.00 0.07 0.07 99 1019.9
20260506194523 50 155 4.0 4.0 0.00 0.07 0.07 99 1019.8
20260506194020 51 128 1.0 4.0 0.00 0.07 0.07 99 1019.7
20260506193517 51 65 2.0 3.0 0.02 0.07 0.07 99 1019.8
20260506193014 51 123 3.0 4.0 0.02 0.07 0.07 99 1019.6
20260506192511 51 128 2.0 5.0 0.00 0.07 0.07 99 1019.7
20260506192007 51 96 3.0 4.0 0.00 0.07 0.07 99 1019.5
20260506191504 51 128 1.0 3.0 0.00 0.07 0.07 99 1019.8
20260506191000 50 105 2.0 3.0 0.02 0.07 0.07 99 1019.6
20260506190458 50 139 3.0 5.0 0.00 0.07 0.07 99 1019.5
20260506185954 50 111 2.0 3.0 0.00 0.07 0.07 99 1019.6
20260506185452 50 116 2.0 3.0 0.00 0.07 0.07 99 1019.4
20260506184948 50 120 4.0 4.0 0.00 0.07 0.07 99 1019.6
20260506184445 50 143 2.0 4.0 0.02 0.07 0.07 99 1019.5
20260506183942 50 114 2.0 3.0 0.02 0.07 0.07 99 1019.4
20260506183437 50 212 0.0 4.0 0.00 0.06 0.06 99 1019.4
20260506182935 50 142 2.0 4.0 0.00 0.06 0.06 99 1019.5
20260506182432 50 116 2.0 4.0 0.00 0.06 0.06 99 1019.4
20260506181929 51 145 2.0 3.0 0.00 0.06 0.06 99 1019.4
20260506181427 51 122 2.0 2.0 0.00 0.06 0.06 99 1019.4
20260506180923 50 97 0.0 2.0 0.00 0.06 0.06 99 1019.3
20260506180420 51 119 1.0 3.0 0.00 0.06 0.06 99 1019.4
20260506175917 51 92 2.0 3.0 0.00 0.06 0.06 99 1019.3
20260506175414 50 109 2.0 2.0 0.02 0.06 0.06 99 1019.2
20260506174910 50 122 2.0 4.0 0.02 0.06 0.06 99 1019.4
20260506174408 51 114 3.0 3.0 0.00 0.06 0.06 99 1019.3
20260506173905 50 105 2.0 2.0 0.00 0.06 0.06 99 1019.2
20260506173402 50 74 1.0 4.0 0.00 0.06 0.06 99 1019.3
20260506172859 50 41 2.0 2.0 0.00 0.06 0.06 99 1019.2
20260506172355 50 51 1.0 2.0 0.00 0.06 0.06 99 1019.1
20260506171854 49 81 1.0 4.0 0.00 0.06 0.06 99 1019.2
20260506171351 50 46 1.0 3.0 0.00 0.06 0.06 99 1019.2
20260506170848 50 81 2.0 2.0 0.00 0.06 0.06 99 1018.8
20260506170344 50 96 1.0 3.0 0.02 0.06 0.06 99 1018.7
20260506165843 50 124 3.0 4.0 0.02 0.06 0.06 99 1018.8
20260506165340 49 111 2.0 3.0 0.00 0.06 0.06 99 1019.0
20260506164836 50 119 3.0 3.0 0.00 0.06 0.06 99 1019.0
20260506164333 50 137 4.0 4.0 0.02 0.06 0.06 99 1018.9
20260506163831 50 130 2.0 3.0 0.02 0.06 0.06 99 1019.2
20260506163325 49 138 0.0 2.0 0.02 0.05 0.05 99 1019.1
20260506162815 49 115 2.0 3.0 0.02 0.05 0.05 99 1018.8
20260506162313 49 94 2.0 2.0 0.02 0.05 0.05 99 1018.8
20260506161810 49 84 1.0 3.0 0.02 0.04 0.04 99 1018.8
20260506161308 49 83 2.0 2.0 0.02 0.04 0.04 99 1019.1
20260506160800 49 109 0.0 2.0 0.00 0.04 0.04 99 1019.1
20260506160256 50 106 2.0 2.0 0.02 0.04 0.04 99 1019.1
20260506155755 50 153 1.0 2.0 0.00 0.04 0.04 99 1019.2
20260506155251 50 45 2.0 2.0 0.02 0.04 0.04 99 1019.1
20260506153403 50 70 1.0 2.0 0.02 0.03 0.03 99 1018.9
20260506152900 50 41 2.0 2.0 0.02 0.03 0.03 99 1019.0
20260506152358 50 97 0.0 2.0 0.00 0.02 0.02 99 1018.6
20260506151856 50 114 2.0 2.0 0.00 0.02 0.02 99 1018.5
20260506151353 49 132 1.0 3.0 0.02 0.02 0.02 99 1018.2
20260506150850 49 102 2.0 3.0 0.02 0.02 0.02 99 1018.5
20260506150346 49 95 2.0 3.0 0.00 0.02 0.02 99 1018.2
20260506145843 49 119 0.0 2.0 0.00 0.02 0.02 99 1018.2
20260506145340 49 142 2.0 4.0 0.00 0.02 0.02 99 1018.1
20260506144837 49 149 2.0 4.0 0.00 0.02 0.02 99 1018.2
20260506144333 49 128 2.0 4.0 0.00 0.02 0.02 99 1018.5
20260506143832 49 121 2.0 5.0 0.02 0.02 0.02 99 1018.4
20260506143329 49 115 2.0 3.0 0.02 0.02 0.02 99 1018.4
20260506142827 49 104 3.0 3.0 0.00 0.02 0.02 99 1018.4
20260506142325 49 108 2.0 4.0 0.00 0.02 0.02 99 1018.5
20260506141823 49 120 2.0 2.0 0.00 0.02 0.02 99 1018.5
20260506141321 49 35 2.0 3.0 0.00 0.02 0.02 99 1018.7
20260506140818 49 176 2.0 3.0 0.02 0.02 0.02 99 1018.1
20260506140315 49 163 3.0 4.0 0.02 0.02 0.02 99 1018.0
20260506135812 49 163 3.0 4.0 0.00 0.01 0.01 99 1017.9
20260506135308 49 115 3.0 3.0 0.00 0.01 0.01 99 1018.2